Weather History for Cancun, Mexico

Change the Weather History Date:

Wednesday, October 17, 2012

  Actual Average Record
Temperature  
Mean Temperature 78 °F -  
Max Temperature 87 °F 86 °F 91 °F (1998)
Min Temperature 69 °F 71 °F 62 °F (2002)
Cooling Degree Days 13    
Growing Degree Days 28 (Base 50)    
Moisture  
Dew Point 72 °F    
Average Humidity 85    
Maximum Humidity 100    
Minimum Humidity 52    
Precipitation  
Precipitation 0.00 in - - ()
Sea Level Pressure  
Sea Level Pressure 29.84 in    
Wind  
Wind Speed 4 mph ()    
Max Wind Speed 8 mph    
Max Gust Speed -    
Visibility 6.8 miles    
Events      
Averages and records for this station are not official NWS values.
T = Trace of Precipitation, MM = Missing Value Source: Averaged Metar Reports

Daily Weather History Graph

Daily Weather History Graph

Search for Another Location

Airport:

Trip Planner

Search our weather history database for the weather conditions in past years. The results will help you decide how hot, cold, wet, or windy it might be!

Date:

Astronomy

Oct. 17, 2012 Rise Set
Actual Time 6:43 AM CDT 6:21 PM CDT
Civil Twilight 6:21 AM CDT 6:43 PM CDT
Nautical Twilight 5:55 AM CDT 7:09 PM CDT
Astronomical Twilight 5:29 AM CDT 7:35 PM CDT
Moon 8:55 AM CDT (10/17) 8:20 PM CDT (10/17)
Length of Visible Light 12h 22m
Length of Day
11h 37m
Waxing Crescent, 7% of the Moon is Illuminated
Oct 17
Waxing Crescent
Oct 21
First Quarter
Oct 29
Full
Nov 6
Last Quarter
Nov 13
New

Hourly Weather History & Observations

Time (CDT) Temp. Heat Index Dew Point Humidity Pressure Visibility Wind Dir Wind Speed Gust Speed Precip Events Conditions
12:49 AM 73.4 °F - 71.6 °F 94% 29.84 in 7.0 mi WNW 4.6 mph - N/A   Partly Cloudy
1:47 AM 71.6 °F - 71.6 °F 100% 29.82 in 7.0 mi NNW 2.3 mph - N/A   Clear
2:46 AM 71.6 °F - 71.6 °F 100% 29.81 in 7.0 mi WNW 4.6 mph - N/A   Clear
3:49 AM 71.6 °F - 71.6 °F 100% 29.83 in 7.0 mi NW 4.6 mph - N/A   Clear
4:46 AM 71.6 °F - 69.8 °F 94% 29.82 in 7.0 mi WNW 4.6 mph - N/A   Clear
5:48 AM 69.8 °F - 69.8 °F 100% 29.83 in 7.0 mi WNW 3.5 mph - N/A   Clear
6:44 AM 69.8 °F - 69.8 °F 100% 29.85 in 7.0 mi NW 3.5 mph - N/A   Scattered Clouds
7:40 AM 71.6 °F - 71.6 °F 100% 29.87 in 6.0 mi NW 5.8 mph - N/A   Clear
8:47 AM 77.0 °F - 75.2 °F 94% 29.88 in 6.0 mi WNW 5.8 mph - N/A   Partly Cloudy
9:52 AM 82.4 °F 89.5 °F 75.2 °F 79% 29.88 in 6.0 mi North 8.1 mph - N/A   Scattered Clouds
10:40 AM 84.2 °F 90.9 °F 73.4 °F 70% 29.88 in 6.0 mi North 5.8 mph - N/A   Mostly Cloudy
11:40 AM 86.0 °F 90.4 °F 69.8 °F 58% 29.87 in 7.0 mi NW 3.5 mph - N/A   Mostly Cloudy
12:44 PM 87.8 °F 91.4 °F 68.0 °F 52% 29.86 in 7.0 mi WNW 6.9 mph - N/A   Mostly Cloudy
1:40 PM 86.0 °F 91.8 °F 71.6 °F 62% 29.82 in 7.0 mi East 3.5 mph - N/A   Mostly Cloudy
2:42 PM 84.2 °F 90.9 °F 73.4 °F 70% 29.80 in 7.0 mi East 6.9 mph - N/A   Mostly Cloudy
3:45 PM 84.2 °F 90.9 °F 73.4 °F 70% 29.80 in 7.0 mi ENE 4.6 mph - N/A   Mostly Cloudy
4:42 PM 82.4 °F 88.2 °F 73.4 °F 74% 29.79 in 7.0 mi NE 4.6 mph - N/A   Mostly Cloudy
5:44 PM 80.6 °F 85.4 °F 73.4 °F 79% 29.79 in 7.0 mi NNE 2.3 mph - N/A   Mostly Cloudy
6:46 PM 78.8 °F - 71.6 °F 78% 29.81 in 7.0 mi NNE 2.3 mph - N/A   Scattered Clouds
7:45 PM 77.0 °F - 71.6 °F 83% 29.84 in 7.0 mi North 2.3 mph - N/A   Scattered Clouds
8:43 PM 75.2 °F - 71.6 °F 89% 29.86 in 7.0 mi North 2.3 mph - N/A   Partly Cloudy
9:48 PM 73.4 °F - 71.6 °F 94% 29.83 in 7.0 mi Calm Calm - N/A   Partly Cloudy
10:47 PM 71.6 °F - 69.8 °F 94% 29.87 in 7.0 mi Calm Calm - N/A   Partly Cloudy
11:46 PM 71.6 °F - 69.8 °F 94% 29.86 in 7.0 mi Calm Calm - N/A   Clear